owner,sensor,date,latitude,longitude,vertical_datum,wind_speed,wind_to_direction,wind_speed_of_gust,qcFlag 
TABS,ioos:station:wmo:42044:1,2016-02-01T00:00:00Z,26.1914,-97.0507,0.0,4.857087605,154.1210481,5.48,'11111222,11111222,11111222' 
TABS,ioos:station:wmo:42044:1,2016-02-01T00:30:00Z,26.1914,-97.0507,0.0,4.089425388,150.2380206,4.74,'11111222,11111222,11111222' 
TABS,ioos:station:wmo:42044:1,2016-02-01T01:00:00Z,26.1914,-97.0507,0.0,4.156164097,157.5076512,4.71,'11111222,11111222,11111222' 
TABS,ioos:station:wmo:42044:1,2016-02-01T01:30:00Z,26.1914,-97.0507,0.0,3.694996617,156.5573446,4.31,'11111222,11111222,11111222' 
TABS,ioos:station:wmo:42044:1,2016-02-01T02:00:00Z,26.1914,-97.0507,0.0,3.931742616,154.5431902,4.41,'11111222,11111222,11111222' 
TABS,ioos:station:wmo:42044:1,2016-02-01T02:30:00Z,26.1914,-97.0507,0.0,3.368827689,151.8377489,3.95,'11111222,11111222,11111222' 
TABS,ioos:station:wmo:42044:1,2016-02-01T03:00:00Z,26.1914,-97.0507,0.0,3.615439116,141.5137403,4.21,'11111222,11111222,11111222' 
TABS,ioos:station:wmo:42044:1,2016-02-01T03:30:00Z,26.1914,-97.0507,0.0,2.730293025,151.0883526,4.6,'11111222,11111222,11111222' 
TABS,ioos:station:wmo:42044:1,2016-02-01T04:00:00Z,26.1914,-97.0507,0.0,4.616199736,154.6009603,5.55,'11111222,11111222,11111222' 
TABS,ioos:station:wmo:42044:1,2016-02-01T04:30:00Z,26.1914,-97.0507,0.0,4.011209294,160.0293542,6.07,'11111222,11111222,11111222' 
TABS,ioos:station:wmo:42044:1,2016-02-01T05:00:00Z,26.1914,-97.0507,0.0,3.453244851,164.0320612,4.1,'11111222,11111222,11111222' 
TABS,ioos:station:wmo:42044:1,2016-02-01T05:30:00Z,26.1914,-97.0507,0.0,2.955486424,176.5085339,3.43,'11111222,11111222,11111222' 
TABS,ioos:station:wmo:42044:1,2016-02-01T06:00:00Z,26.1914,-97.0507,0.0,3.071481727,164.516077,4.29,'11111222,11111222,11111222' 
TABS,ioos:station:wmo:42044:1,2016-02-01T06:30:00Z,26.1914,-97.0507,0.0,3.040065789,180.3771501,3.55,'11111222,11111222,11111222' 
TABS,ioos:station:wmo:42044:1,2016-02-01T07:00:00Z,26.1914,-97.0507,0.0,3.463018914,175.0304814,5.29,'11111222,11111222,11111222' 
TABS,ioos:station:wmo:42044:1,2016-02-01T07:30:00Z,26.1914,-97.0507,0.0,2.961384811,171.6512336,3.37,'11111222,11111222,11111222' 
TABS,ioos:station:wmo:42044:1,2016-02-01T08:00:00Z,26.1914,-97.0507,0.0,2.663625349,164.7639933,3.35,'11111222,11111222,11111222' 
TABS,ioos:station:wmo:42044:1,2016-02-01T08:30:00Z,26.1914,-97.0507,0.0,4.620097402,179.628166,5.5,'11111222,11111222,11111222' 
TABS,ioos:station:wmo:42044:1,2016-02-01T09:00:00Z,26.1914,-97.0507,0.0,3.850207787,180.5954685,4.75,'11111222,11111222,11111222' 
TABS,ioos:station:wmo:42044:1,2016-02-01T09:30:00Z,26.1914,-97.0507,0.0,3.69,180.0002105,4.36,'11111222,11111222,11111222' 
TABS,ioos:station:wmo:42044:1,2016-02-01T10:00:00Z,26.1914,-97.0507,0.0,3.807571404,176.3863382,4.4,'11111222,11111222,11111222' 
TABS,ioos:station:wmo:42044:1,2016-02-01T10:30:00Z,26.1914,-97.0507,0.0,3.292187722,177.9113257,3.8,'11111222,11111222,11111222' 
TABS,ioos:station:wmo:42044:1,2016-02-01T11:00:00Z,26.1914,-97.0507,0.0,4.252822592,175.5498512,5.33,'11111222,11111222,11111222' 
TABS,ioos:station:wmo:42044:1,2016-02-01T11:30:00Z,26.1914,-97.0507,0.0,4.621558179,178.5123464,5.59,'11111222,11111222,11111222' 
TABS,ioos:station:wmo:42044:1,2016-02-01T12:00:00Z,26.1914,-97.0507,0.0,3.945592478,176.9492685,5.19,'11111222,11111222,11111222' 
TABS,ioos:station:wmo:42044:1,2016-02-01T12:30:00Z,26.1914,-97.0507,0.0,3.840208328,179.4034024,4.64,'11111222,11111222,11111222' 
TABS,ioos:station:wmo:42044:1,2016-02-01T13:00:00Z,26.1914,-97.0507,0.0,3.33995509,168.2529416,3.88,'11111222,11111222,11111222' 
TABS,ioos:station:wmo:42044:1,2016-02-01T13:30:00Z,26.1914,-97.0507,0.0,4.65611426,162.8884743,5.6,'11111222,11111222,11111222' 
TABS,ioos:station:wmo:42044:1,2016-02-01T14:00:00Z,26.1914,-97.0507,0.0,4.867864008,170.4218099,5.71,'11111222,11111222,11111222' 
TABS,ioos:station:wmo:42044:1,2016-02-01T14:30:00Z,26.1914,-97.0507,0.0,5.20331625,168.0208419,6.46,'11111222,11111222,11111222' 
TABS,ioos:station:wmo:42044:1,2016-02-01T15:00:00Z,26.1914,-97.0507,0.0,5.23025812,167.1862632,6.21,'11111222,11111222,11111222' 
TABS,ioos:station:wmo:42044:1,2016-02-01T15:30:00Z,26.1914,-97.0507,0.0,4.046838272,167.4407188,4.81,'11111222,11111222,11111222' 
TABS,ioos:station:wmo:42044:1,2016-02-01T16:00:00Z,26.1914,-97.0507,0.0,4.46561306,163.8786123,5.14,'11111222,11111222,11111222' 
TABS,ioos:station:wmo:42044:1,2016-02-01T16:30:00Z,26.1914,-97.0507,0.0,4.089364254,162.4957787,4.59,'11111222,11111222,11111222' 
TABS,ioos:station:wmo:42044:1,2016-02-01T17:00:00Z,26.1914,-97.0507,0.0,4.368352092,160.1964441,5.1,'11111222,11111222,11111222' 
TABS,ioos:station:wmo:42044:1,2016-02-01T17:30:00Z,26.1914,-97.0507,0.0,4.706187417,156.3220901,5.52,'11111222,11111222,11111222' 
TABS,ioos:station:wmo:42044:1,2016-02-01T18:00:00Z,26.1914,-97.0507,0.0,4.691620189,157.0422087,5.45,'11111222,11111222,11111222' 
TABS,ioos:station:wmo:42044:1,2016-02-01T18:30:00Z,26.1914,-97.0507,0.0,5.180965161,158.4863546,6.0,'11111222,11111222,11111222' 
TABS,ioos:station:wmo:42044:1,2016-02-01T19:00:00Z,26.1914,-97.0507,0.0,5.233211251,158.8291193,5.96,'11111222,11111222,11111222' 
TABS,ioos:station:wmo:42044:1,2016-02-01T19:30:00Z,26.1914,-97.0507,0.0,5.227513749,158.6873287,6.0,'11111222,11111222,11111222' 
TABS,ioos:station:wmo:42044:1,2016-02-01T20:00:00Z,26.1914,-97.0507,0.0,5.130789413,158.3854821,5.85,'11111222,11111222,11111222' 
TABS,ioos:station:wmo:42044:1,2016-02-01T20:30:00Z,26.1914,-97.0507,0.0,5.707118362,159.9142245,6.73,'11111222,11111222,11111222' 
TABS,ioos:station:wmo:42044:1,2016-02-01T21:00:00Z,26.1914,-97.0507,0.0,5.512023222,155.1089685,6.24,'11111222,11111222,11111222' 
TABS,ioos:station:wmo:42044:1,2016-02-01T21:30:00Z,26.1914,-97.0507,0.0,5.872052452,153.8279501,7.02,'11111222,11111222,11111222' 
TABS,ioos:station:wmo:42044:1,2016-02-01T22:00:00Z,26.1914,-97.0507,0.0,5.551765485,151.9581429,6.36,'11111222,11111222,11111222' 
TABS,ioos:station:wmo:42044:1,2016-02-01T22:30:00Z,26.1914,-97.0507,0.0,6.186517599,152.1511523,7.3,'11111222,11111222,11111222' 
TABS,ioos:station:wmo:42044:1,2016-02-01T23:00:00Z,26.1914,-97.0507,0.0,6.354368576,155.4518406,7.52,'11111222,11111222,11111222' 
TABS,ioos:station:wmo:42044:1,2016-02-01T23:30:00Z,26.1914,-97.0507,0.0,6.28809192,153.9649669,7.4,'11111222,11111222,11111222' 
TABS,ioos:station:wmo:42044:1,2016-02-02T00:00:00Z,26.1914,-97.0507,0.0,7.030504961,158.4712539,8.21,'11111222,11111222,11111222' 
TABS,ioos:station:wmo:42044:1,2016-02-02T00:30:00Z,26.1914,-97.0507,0.0,8.66663141,158.6162545,10.2,'11111222,11111222,11111222' 
TABS,ioos:station:wmo:42044:1,2016-02-02T01:00:00Z,26.1914,-97.0507,0.0,8.851146818,160.0503335,10.31,'11111222,11111222,11111222' 
TABS,ioos:station:wmo:42044:1,2016-02-02T01:30:00Z,26.1914,-97.0507,0.0,8.217596972,165.3383048,10.53,'11111222,11111222,11111222' 
TABS,ioos:station:wmo:42044:1,2016-02-02T02:00:00Z,26.1914,-97.0507,0.0,8.146508455,160.9425505,9.63,'11111222,11111222,11111222' 
TABS,ioos:station:wmo:42044:1,2016-02-02T02:30:00Z,26.1914,-97.0507,0.0,8.41971496,162.7274162,9.96,'11111222,11111222,11111222' 
TABS,ioos:station:wmo:42044:1,2016-02-02T03:00:00Z,26.1914,-97.0507,0.0,7.615700887,163.4451268,8.76,'11111222,11111222,11111222' 
TABS,ioos:station:wmo:42044:1,2016-02-02T03:30:00Z,26.1914,-97.0507,0.0,7.554654195,169.1662698,8.64,'11111222,11111222,11111222' 
TABS,ioos:station:wmo:42044:1,2016-02-02T04:00:00Z,26.1914,-97.0507,0.0,7.910903867,170.3950288,9.23,'11111222,11111222,11111222' 
TABS,ioos:station:wmo:42044:1,2016-02-02T04:30:00Z,26.1914,-97.0507,0.0,10.29121956,167.314425,12.25,'11111222,11111222,11111222' 
TABS,ioos:station:wmo:42044:1,2016-02-02T05:00:00Z,26.1914,-97.0507,0.0,9.021396788,168.491016,10.55,'11111222,11111222,11111222' 
TABS,ioos:station:wmo:42044:1,2016-02-02T05:30:00Z,26.1914,-97.0507,0.0,9.845872232,171.5903172,11.82,'11111222,11111222,11111222' 
TABS,ioos:station:wmo:42044:1,2016-02-02T06:00:00Z,26.1914,-97.0507,0.0,10.14728535,172.9242353,12.06,'11111222,11111222,11111222' 
TABS,ioos:station:wmo:42044:1,2016-02-02T06:30:00Z,26.1914,-97.0507,0.0,9.868520659,177.6191061,11.38,'11111222,11111222,11111222' 
TABS,ioos:station:wmo:42044:1,2016-02-02T07:00:00Z,26.1914,-97.0507,0.0,10.70448971,181.6597135,13.01,'11111222,11111222,11111222' 
TABS,ioos:station:wmo:42044:1,2016-02-02T07:30:00Z,26.1914,-97.0507,0.0,10.39708613,175.8635621,12.19,'11111222,11111222,11111222' 
TABS,ioos:station:wmo:42044:1,2016-02-02T08:00:00Z,26.1914,-97.0507,0.0,9.775479528,173.8930466,11.53,'11111222,11111222,11111222' 
TABS,ioos:station:wmo:42044:1,2016-02-02T08:30:00Z,26.1914,-97.0507,0.0,10.3845751,176.964231,11.9,'11111222,11111222,11111222' 
TABS,ioos:station:wmo:42044:1,2016-02-02T09:00:00Z,26.1914,-97.0507,0.0,9.377233067,169.4931819,10.94,'11111222,11111222,11111222' 
TABS,ioos:station:wmo:42044:1,2016-02-02T09:30:00Z,26.1914,-97.0507,0.0,9.150497254,173.9781089,10.48,'11111222,11111222,11111222' 
TABS,ioos:station:wmo:42044:1,2016-02-02T10:00:00Z,26.1914,-97.0507,0.0,9.297074809,171.7132486,10.69,'11111222,11111222,11111222' 
TABS,ioos:station:wmo:42044:1,2016-02-02T10:30:00Z,26.1914,-97.0507,0.0,8.707238368,172.8752108,9.98,'11111222,11111222,11111222' 
TABS,ioos:station:wmo:42044:1,2016-02-02T11:00:00Z,26.1914,-97.0507,0.0,8.080099009,179.716571,9.25,'11111222,11111222,11111222' 
TABS,ioos:station:wmo:42044:1,2016-02-02T11:30:00Z,26.1914,-97.0507,0.0,7.733130026,191.7896276,8.93,'11111222,11111222,11111222' 
TABS,ioos:station:wmo:42044:1,2016-02-02T12:00:00Z,26.1914,-97.0507,0.0,5.538411325,249.2744896,6.79,'11111222,11111222,11111222' 
TABS,ioos:station:wmo:42044:1,2016-02-02T12:30:00Z,26.1914,-97.0507,0.0,7.007774254,212.3521831,9.49,'11111222,11111222,11111222' 
TABS,ioos:station:wmo:42044:1,2016-02-02T13:00:00Z,26.1914,-97.0507,0.0,4.646600908,223.8665494,5.57,'11111222,11111222,11111222' 
TABS,ioos:station:wmo:42044:1,2016-02-02T13:30:00Z,26.1914,-97.0507,0.0,5.445897539,219.0378408,6.82,'11111222,11111222,11111222' 
TABS,ioos:station:wmo:42044:1,2016-02-02T14:00:00Z,26.1914,-97.0507,0.0,3.057662506,220.3575139,3.82,'11111222,11111222,11111222' 
TABS,ioos:station:wmo:42044:1,2016-02-02T14:30:00Z,26.1914,-97.0507,0.0,2.502878343,272.7480818,3.13,'11111222,11111222,11111222' 
TABS,ioos:station:wmo:42044:1,2016-02-02T15:00:00Z,26.1914,-97.0507,0.0,1.846104006,282.831749,2.64,'11111222,11111222,11111222' 
TABS,ioos:station:wmo:42044:1,2016-02-02T15:30:00Z,26.1914,-97.0507,0.0,2.853506615,312.0169636,3.66,'11111222,11111222,11111222' 
TABS,ioos:station:wmo:42044:1,2016-02-02T16:00:00Z,26.1914,-97.0507,0.0,7.030455177,338.0319624,10.83,'11111222,11111222,11111222' 
TABS,ioos:station:wmo:42044:1,2016-02-02T16:30:00Z,26.1914,-97.0507,0.0,10.36071426,353.7939658,12.8,'11111222,11111222,11111222' 
TABS,ioos:station:wmo:42044:1,2016-02-02T17:00:00Z,26.1914,-97.0507,0.0,10.41251651,354.8203182,12.2,'11111222,11111222,11111222' 
TABS,ioos:station:wmo:42044:1,2016-02-02T17:30:00Z,26.1914,-97.0507,0.0,9.970702082,354.8209804,12.62,'11111222,11111222,11111222' 
TABS,ioos:station:wmo:42044:1,2016-02-02T18:00:00Z,26.1914,-97.0507,0.0,10.12009881,354.8976362,12.36,'11111222,11111222,11111222' 
TABS,ioos:station:wmo:42044:1,2016-02-02T18:30:00Z,26.1914,-97.0507,0.0,9.719963992,357.4052633,11.53,'11111222,11111222,11111222' 
TABS,ioos:station:wmo:42044:1,2016-02-02T19:00:00Z,26.1914,-97.0507,0.0,9.710020597,0.117803062,11.58,'11111222,11111222,11111222' 
TABS,ioos:station:wmo:42044:1,2016-02-02T19:30:00Z,26.1914,-97.0507,0.0,9.834236117,4.023132452,11.92,'11111222,11111222,11111222' 
TABS,ioos:station:wmo:42044:1,2016-02-02T20:00:00Z,26.1914,-97.0507,0.0,10.35451592,6.877708437,13.11,'11111222,11111222,11111222' 
TABS,ioos:station:wmo:42044:1,2016-02-02T20:30:00Z,26.1914,-97.0507,0.0,9.356452319,8.233794739,11.5,'11111222,11111222,11111222' 
TABS,ioos:station:wmo:42044:1,2016-02-02T21:00:00Z,26.1914,-97.0507,0.0,9.90403958,11.65006174,11.99,'11111222,11111222,11111222' 
TABS,ioos:station:wmo:42044:1,2016-02-02T21:30:00Z,26.1914,-97.0507,0.0,9.54710951,12.52205856,11.73,'11111222,11111222,11111222' 
TABS,ioos:station:wmo:42044:1,2016-02-02T22:00:00Z,26.1914,-97.0507,0.0,8.348706487,8.818979216,9.78,'11111222,11111222,11111222' 
TABS,ioos:station:wmo:42044:1,2016-02-02T22:30:00Z,26.1914,-97.0507,0.0,7.121916877,12.24060871,8.34,'11111222,11111222,11111222' 
TABS,ioos:station:wmo:42044:1,2016-02-02T23:00:00Z,26.1914,-97.0507,0.0,7.116010118,14.15316903,8.54,'11111222,11111222,11111222' 
TABS,ioos:station:wmo:42044:1,2016-02-02T23:30:00Z,26.1914,-97.0507,0.0,7.305477397,17.69063779,8.45,'11111222,11111222,11111222' 
TABS,ioos:station:wmo:42044:1,2016-02-03T00:00:00Z,26.1914,-97.0507,0.0,7.285629691,16.09638065,8.44,'11111222,11111222,11111222' 
TABS,ioos:station:wmo:42044:1,2016-02-03T00:30:00Z,26.1914,-97.0507,0.0,6.836585405,20.10457197,8.18,'11111222,11111222,11111222' 
TABS,ioos:station:wmo:42044:1,2016-02-03T01:00:00Z,26.1914,-97.0507,0.0,6.600916603,23.57444062,7.94,'11111222,11111222,11111222' 
TABS,ioos:station:wmo:42044:1,2016-02-03T01:30:00Z,26.1914,-97.0507,0.0,7.37273355,36.06136007,8.66,'11111222,11111222,11111222' 
TABS,ioos:station:wmo:42044:1,2016-02-03T02:00:00Z,26.1914,-97.0507,0.0,4.958195236,37.37806047,6.27,'11111222,11111222,11111222' 
TABS,ioos:station:wmo:42044:1,2016-02-03T02:30:00Z,26.1914,-97.0507,0.0,4.21672859,43.07773285,5.11,'11111222,11111222,11111222' 
TABS,ioos:station:wmo:42044:1,2016-02-03T03:00:00Z,26.1914,-97.0507,0.0,3.263694226,30.57207493,3.89,'11111222,11111222,11111222' 
TABS,ioos:station:wmo:42044:1,2016-02-03T03:30:00Z,26.1914,-97.0507,0.0,2.611972435,27.34960137,3.33,'11111222,11111222,11111222' 
TABS,ioos:station:wmo:42044:1,2016-02-03T04:00:00Z,26.1914,-97.0507,0.0,2.328196727,10.3926574,2.77,'11111222,11111222,11111222' 
TABS,ioos:station:wmo:42044:1,2016-02-03T04:30:00Z,26.1914,-97.0507,0.0,2.810498176,348.0901603,3.44,'11111222,11111222,11111222' 
TABS,ioos:station:wmo:42044:1,2016-02-03T05:00:00Z,26.1914,-97.0507,0.0,3.522271994,344.8588411,4.11,'11111222,11111222,11111222' 
TABS,ioos:station:wmo:42044:1,2016-02-03T05:30:00Z,26.1914,-97.0507,0.0,3.348327941,347.5823728,3.92,'11111222,11111222,11111222' 
TABS,ioos:station:wmo:42044:1,2016-02-03T06:00:00Z,26.1914,-97.0507,0.0,4.81,337.3799775,5.78,'11111222,11111222,11111222' 
TABS,ioos:station:wmo:42044:1,2016-02-03T06:30:00Z,26.1914,-97.0507,0.0,5.890237686,334.1308409,6.94,'11111222,11111222,11111222' 
TABS,ioos:station:wmo:42044:1,2016-02-03T07:00:00Z,26.1914,-97.0507,0.0,5.952520475,333.7791729,6.87,'11111222,11111222,11111222' 
TABS,ioos:station:wmo:42044:1,2016-02-03T07:30:00Z,26.1914,-97.0507,0.0,6.076322901,328.664166,7.47,'11111222,11111222,11111222' 
TABS,ioos:station:wmo:42044:1,2016-02-03T08:00:00Z,26.1914,-97.0507,0.0,6.667960708,333.3579452,7.92,'11111222,11111222,11111222' 
TABS,ioos:station:wmo:42044:1,2016-02-03T08:30:00Z,26.1914,-97.0507,0.0,7.617296108,337.9470134,8.84,'11111222,11111222,11111222' 
TABS,ioos:station:wmo:42044:1,2016-02-03T09:00:00Z,26.1914,-97.0507,0.0,8.515362588,348.6898835,10.3,'11111222,11111222,11111222' 
TABS,ioos:station:wmo:42044:1,2016-02-03T09:30:00Z,26.1914,-97.0507,0.0,8.279190782,357.2998187,9.67,'11111222,11111222,11111222' 
TABS,ioos:station:wmo:42044:1,2016-02-03T10:00:00Z,26.1914,-97.0507,0.0,6.822118439,358.5718947,8.09,'11111222,11111222,11111222' 
TABS,ioos:station:wmo:42044:1,2016-02-03T10:30:00Z,26.1914,-97.0507,0.0,7.232496111,358.4944413,8.61,'11111222,11111222,11111222' 
TABS,ioos:station:wmo:42044:1,2016-02-03T11:00:00Z,26.1914,-97.0507,0.0,7.17044629,359.3605341,8.8,'11111222,11144222,11111222' 
TABS,ioos:station:wmo:42044:1,2016-02-03T11:30:00Z,26.1914,-97.0507,0.0,7.130568,359.276601,8.21,'11111222,11144222,11111222' 
TABS,ioos:station:wmo:42044:1,2016-02-03T12:00:00Z,26.1914,-97.0507,0.0,6.230288918,359.4480026,7.81,'11111222,11144222,11111222' 
TABS,ioos:station:wmo:42044:1,2016-02-03T12:30:00Z,26.1914,-97.0507,0.0,8.842561846,353.1801923,11.25,'11111222,11111222,11111222' 
TABS,ioos:station:wmo:42044:1,2016-02-03T13:00:00Z,26.1914,-97.0507,0.0,7.850382156,5.042228819,9.02,'11111222,11111222,11111222' 
TABS,ioos:station:wmo:42044:1,2016-02-03T13:30:00Z,26.1914,-97.0507,0.0,8.092675701,5.886489653,9.2,'11111222,11111222,11111222' 
TABS,ioos:station:wmo:42044:1,2016-02-03T14:00:00Z,26.1914,-97.0507,0.0,8.424850147,3.402184393,9.72,'11111222,11111222,11111222' 
TABS,ioos:station:wmo:42044:1,2016-02-03T14:30:00Z,26.1914,-97.0507,0.0,9.694642851,358.226497,12.14,'11111222,11111222,11111222' 
TABS,ioos:station:wmo:42044:1,2016-02-03T15:00:00Z,26.1914,-97.0507,0.0,9.980245488,0.401656217,11.64,'11111222,11111222,11111222' 
TABS,ioos:station:wmo:42044:1,2016-02-03T15:30:00Z,26.1914,-97.0507,0.0,10.28121102,2.6757302,11.82,'11111222,11111222,11111222' 
TABS,ioos:station:wmo:42044:1,2016-02-03T16:00:00Z,26.1914,-97.0507,0.0,10.45888139,5.541388271,12.15,'11111222,11111222,11111222' 
TABS,ioos:station:wmo:42044:1,2016-02-03T16:30:00Z,26.1914,-97.0507,0.0,10.18075145,5.127968591,12.56,'11111222,11111222,11111222' 
TABS,ioos:station:wmo:42044:1,2016-02-03T17:00:00Z,26.1914,-97.0507,0.0,10.54847856,6.531910954,12.19,'11111222,11111222,11111222' 
TABS,ioos:station:wmo:42044:1,2016-02-03T17:30:00Z,26.1914,-97.0507,0.0,9.851466896,3.782905752,11.9,'11111222,11111222,11111222' 
TABS,ioos:station:wmo:42044:1,2016-02-03T18:00:00Z,26.1914,-97.0507,0.0,9.695302986,4.14013245,12.29,'11111222,11111222,11111222' 
TABS,ioos:station:wmo:42044:1,2016-02-03T18:30:00Z,26.1914,-97.0507,0.0,9.810733918,359.2989603,11.6,'11111222,11144222,11111222' 
TABS,ioos:station:wmo:42044:1,2016-02-03T19:00:00Z,26.1914,-97.0507,0.0,9.691011299,0.827532814,11.47,'11111222,11111222,11111222' 
TABS,ioos:station:wmo:42044:1,2016-02-03T19:30:00Z,26.1914,-97.0507,0.0,9.750005128,359.9410248,11.63,'11111222,11144222,11111222' 
TABS,ioos:station:wmo:42044:1,2016-02-03T20:00:00Z,26.1914,-97.0507,0.0,9.384977357,3.237182155,11.28,'11111222,11111222,11111222' 
TABS,ioos:station:wmo:42044:1,2016-02-03T20:30:00Z,26.1914,-97.0507,0.0,9.467232964,2.239598084,11.43,'11111222,11111222,11111222' 
TABS,ioos:station:wmo:42044:1,2016-02-03T21:00:00Z,26.1914,-97.0507,0.0,9.627112755,2.202382552,11.35,'11111222,11111222,11111222' 
TABS,ioos:station:wmo:42044:1,2016-02-03T21:30:00Z,26.1914,-97.0507,0.0,9.608350535,7.775679999,11.02,'11111222,11111222,11111222' 
TABS,ioos:station:wmo:42044:1,2016-02-03T22:00:00Z,26.1914,-97.0507,0.0,9.271596411,7.124789229,11.22,'11111222,11111222,11111222' 
TABS,ioos:station:wmo:42044:1,2016-02-03T22:30:00Z,26.1914,-97.0507,0.0,9.186756773,9.144239445,10.82,'11111222,11111222,11111222' 
TABS,ioos:station:wmo:42044:1,2016-02-03T23:00:00Z,26.1914,-97.0507,0.0,9.053021595,15.11055135,10.55,'11111222,11111222,11111222' 
TABS,ioos:station:wmo:42044:1,2016-02-03T23:30:00Z,26.1914,-97.0507,0.0,8.659012646,21.97316963,9.92,'11111222,11111222,11111222' 
TABS,ioos:station:wmo:42044:1,2016-02-04T00:00:00Z,26.1914,-97.0507,0.0,8.414130971,23.09103072,10.41,'11111222,11111222,11111222' 
TABS,ioos:station:wmo:42044:1,2016-02-04T00:30:00Z,26.1914,-97.0507,0.0,8.785038418,24.40590389,10.42,'11111222,11111222,11111222' 
TABS,ioos:station:wmo:42044:1,2016-02-04T01:00:00Z,26.1914,-97.0507,0.0,8.737579756,18.82868733,10.41,'11111222,11111222,11111222' 
TABS,ioos:station:wmo:42044:1,2016-02-04T01:30:00Z,26.1914,-97.0507,0.0,8.181760202,16.61850452,10.21,'11111222,11111222,11111222' 
TABS,ioos:station:wmo:42044:1,2016-02-04T02:00:00Z,26.1914,-97.0507,0.0,7.494778182,13.4241282,9.04,'11111222,11111222,11111222' 
TABS,ioos:station:wmo:42044:1,2016-02-04T02:30:00Z,26.1914,-97.0507,0.0,8.012421606,12.24934406,9.54,'11111222,11111222,11111222' 
TABS,ioos:station:wmo:42044:1,2016-02-04T03:00:00Z,26.1914,-97.0507,0.0,7.715652921,15.63913907,9.39,'11111222,11111222,11111222' 
TABS,ioos:station:wmo:42044:1,2016-02-04T03:30:00Z,26.1914,-97.0507,0.0,7.595004937,13.01133903,9.66,'11111222,11111222,11111222' 
TABS,ioos:station:wmo:42044:1,2016-02-04T04:00:00Z,26.1914,-97.0507,0.0,7.783932168,8.42134531,9.44,'11111222,11111222,11111222' 
TABS,ioos:station:wmo:42044:1,2016-02-04T04:30:00Z,26.1914,-97.0507,0.0,8.211485858,11.02233028,10.3,'11111222,11111222,11111222' 
TABS,ioos:station:wmo:42044:1,2016-02-04T05:00:00Z,26.1914,-97.0507,0.0,8.548689958,15.19021146,10.3,'11111222,11111222,11111222' 
TABS,ioos:station:wmo:42044:1,2016-02-04T05:30:00Z,26.1914,-97.0507,0.0,8.603545781,10.10804794,10.24,'11111222,11111222,11111222' 
TABS,ioos:station:wmo:42044:1,2016-02-04T06:00:00Z,26.1914,-97.0507,0.0,8.901741403,12.52158664,11.01,'11111222,11111222,11111222' 
TABS,ioos:station:wmo:42044:1,2016-02-04T06:30:00Z,26.1914,-97.0507,0.0,9.404387274,13.09027197,11.09,'11111222,11111222,11111222' 
TABS,ioos:station:wmo:42044:1,2016-02-04T07:00:00Z,26.1914,-97.0507,0.0,9.276658881,11.81843846,11.06,'11111222,11111222,11111222' 
TABS,ioos:station:wmo:42044:1,2016-02-04T07:30:00Z,26.1914,-97.0507,0.0,9.787931344,12.3888847,11.67,'11111222,11111222,11111222' 
TABS,ioos:station:wmo:42044:1,2016-02-04T08:00:00Z,26.1914,-97.0507,0.0,9.764655652,11.16009892,12.41,'11111222,11111222,11111222' 
TABS,ioos:station:wmo:42044:1,2016-02-04T08:30:00Z,26.1914,-97.0507,0.0,9.706760531,13.46334914,11.67,'11111222,11111222,11111222' 
TABS,ioos:station:wmo:42044:1,2016-02-04T09:00:00Z,26.1914,-97.0507,0.0,9.737848838,14.20724445,11.6,'11111222,11111222,11111222' 
TABS,ioos:station:wmo:42044:1,2016-02-04T09:30:00Z,26.1914,-97.0507,0.0,10.04414257,15.47500844,11.92,'11111222,11111222,11111222' 
TABS,ioos:station:wmo:42044:1,2016-02-04T10:00:00Z,26.1914,-97.0507,0.0,10.47916027,15.04387517,12.35,'11111222,11111222,11111222' 
TABS,ioos:station:wmo:42044:1,2016-02-04T10:30:00Z,26.1914,-97.0507,0.0,10.28214472,17.4302298,12.4,'11111222,11111222,11111222' 
TABS,ioos:station:wmo:42044:1,2016-02-04T11:00:00Z,26.1914,-97.0507,0.0,10.14991626,20.29150976,12.85,'11111222,11111222,11111222' 
TABS,ioos:station:wmo:42044:1,2016-02-04T11:30:00Z,26.1914,-97.0507,0.0,10.40094227,15.96028171,12.72,'11111222,11111222,11111222' 
TABS,ioos:station:wmo:42044:1,2016-02-04T12:00:00Z,26.1914,-97.0507,0.0,9.739866529,18.24867109,12.08,'11111222,11111222,11111222' 
TABS,ioos:station:wmo:42044:1,2016-02-04T12:30:00Z,26.1914,-97.0507,0.0,10.1205237,17.53952364,12.41,'11111222,11111222,11111222' 
TABS,ioos:station:wmo:42044:1,2016-02-04T13:00:00Z,26.1914,-97.0507,0.0,10.38867171,19.04512805,12.26,'11111222,11111222,11111222' 
TABS,ioos:station:wmo:42044:1,2016-02-04T13:30:00Z,26.1914,-97.0507,0.0,10.58527751,17.59594829,12.62,'11111222,11111222,11111222' 
TABS,ioos:station:wmo:42044:1,2016-02-04T14:00:00Z,26.1914,-97.0507,0.0,10.57835999,15.57315205,12.83,'11111222,11111222,11111222' 
TABS,ioos:station:wmo:42044:1,2016-02-04T14:30:00Z,26.1914,-97.0507,0.0,10.09200178,16.22589223,12.38,'11111222,11111222,11111222' 
TABS,ioos:station:wmo:42044:1,2016-02-04T15:00:00Z,26.1914,-97.0507,0.0,10.11082588,16.78583914,12.04,'11111222,11111222,11111222' 
TABS,ioos:station:wmo:42044:1,2016-02-04T15:30:00Z,26.1914,-97.0507,0.0,9.816109209,17.91786711,12.22,'11111222,11111222,11111222' 
TABS,ioos:station:wmo:42044:1,2016-02-04T16:00:00Z,26.1914,-97.0507,0.0,9.823466801,16.68223508,11.67,'11111222,11111222,11111222' 
TABS,ioos:station:wmo:42044:1,2016-02-04T16:30:00Z,26.1914,-97.0507,0.0,9.275866536,17.63381954,11.48,'11111222,11111222,11111222' 
TABS,ioos:station:wmo:42044:1,2016-02-04T17:00:00Z,26.1914,-97.0507,0.0,9.341059897,20.49117567,11.19,'11111222,11111222,11111222' 
TABS,ioos:station:wmo:42044:1,2016-02-04T17:30:00Z,26.1914,-97.0507,0.0,9.054943401,15.63225029,12.02,'11111222,11111222,11111222' 
TABS,ioos:station:wmo:42044:1,2016-02-04T18:00:00Z,26.1914,-97.0507,0.0,8.881244282,12.81546363,10.65,'11111222,11111222,11111222' 
TABS,ioos:station:wmo:42044:1,2016-02-04T18:30:00Z,26.1914,-97.0507,0.0,8.662130223,8.363731363,10.59,'11111222,11111222,11111222' 